Wind_Speed
34 36 37 37 38 39 41 41 40 39 40 39 37 36 34 33 32 31 31 32 33 33 33 33 34 35 36 38 40 42 42 41 42 43 41 40 40 39 38 38 37 36 36 36
32 33 33 34 36 37 37 37 37 38 38 38 37 36 34 33 33 33 34 34 35 36 36 37 37 38 39 40 41 42 43 43 43 44 43 43 43 41 39 38 38 37 37 37
30 30 30 32 32 33 34 34 35 35 36 36 37 36 34 34 34 35 36 37 38 39 40 41 42 43 43 43 44 44 44 45 45 45 46 45 43 42 41 40 39 38 38 38
30 29 28 29 29 30 31 31 31 32 33 34 35 36 34 34 35 37 38 40 41 43 44 45 46 47 48 48 48 47 47 48 48 48 48 47 45 44 43 42 40 39 39 39
28 27 26 26 26 27 27 27 28 29 31 32 33 36 35 36 37 39 41 43 45 46 48 49 50 50 51 52 52 52 51 51 50 49 49 48 47 46 45 43 42 40 40 39
28 26 25 24 24 24 24 25 26 28 30 32 32 35 35 38 40 42 44 46 47 49 49 50 51 52 53 54 55 55 55 54 52 51 50 49 48 47 46 45 43 42 40 40
27 25 24 23 23 23 24 24 26 28 30 32 34 36 36 39 41 44 46 48 49 49 49 49 50 51 52 53 54 55 56 55 54 53 51 50 49 48 47 46 44 42 41 40
27 25 24 23 23 23 24 25 27 30 32 34 36 38 38 40 42 44 45 47 48 49 49 50 50 50 51 52 53 54 55 56 55 54 52 51 49 48 47 46 45 43 41 41
27 25 25 24 24 24 25 26 28 31 33 36 37 38 38 39 41 43 45 47 48 49 49 49 50 50 50 51 52 52 54 55 55 54 53 51 49 48 47 47 45 43 41 41
27 26 25 25 25 26 27 27 29 31 33 36 36 35 35 36 38 41 42 44 45 46 47 48 49 50 50 50 51 52 52 53 54 54 53 50 48 47 47 46 45 43 42 41
26 26 25 24 25 26 27 28 29 31 33 34 35 32 31 33 35 37 39 41 42 44 46 47 48 49 49 50 50 51 50 52 52 51 50 49 48 47 46 45 44 43 41 40
25 24 23 24 25 26 26 27 28 29 30 31 33 27 25 29 32 35 37 39 40 42 45 46 47 47 47 47 48 49 49 49 48 48 47 47 46 46 45 44 43 41 40 39
24 23 23 24 25 25 25 25 27 28 29 28 28 24 25 29 31 32 34 36 38 40 42 43 43 42 41 41 43 45 46 45 45 45 44 44 43 43 43 42 41 40 39 39
23 22 23 23 24 23 22 23 25 26 26 25 24 23 21 26 28 29 31 33 35 37 38 38 37 35 34 34 35 39 40 41 41 41 41 41 40 40 39 39 38 38 38 38
22 21 22 22 22 21 20 21 22 23 23 23 21 21 20 23 25 26 28 29 30 31 31 29 27 24 23 24 27 31 35 36 37 37 37 37 37 36 36 36 35 36 36 37
20 20 21 21 21 20 19 19 20 20 21 20 19 17 19 20 22 24 24 25 26 25 23 19 16 13 14 18 22 26 31 33 34 33 33 32 32 32 32 33 33 34 34 35
19 19 19 19 20 19 17 17 18 18 17 17 16 15 16 18 20 20 20 21 20 19 15 10 5 4 10 15 20 24 27 29 29 29 29 28 29 29 29 30 31 32 33 35
17 18 18 18 19 17 16 15 15 15 14 14 13 12 14 15 17 17 15 15 15 14 12 7 4 7 12 16 20 22 25 25 26 25 25 25 25 26 26 27 29 31 33 35
17 17 17 17 17 16 14 13 12 11 11 11 10 11 12 13 14 14 12 11 11 11 10 9 9 12 14 17 18 20 21 21 21 21 21 21 22 23 25 27 29 30 32 34
15 15 15 15 14 13 12 11 10 9 9 9 8 9 10 10 11 11 10 10 9 8 9 10 11 13 16 17 18 17 17 17 17 17 17 18 20 22 24 25 27 29 32 34
14 14 14 14 13 12 11 10 9 8 8 8 8 8 8 9 9 8 8 7 7 7 8 10 11 12 13 13 14 15 14 14 14 15 16 17 19 21 23 25 27 29 31 34
14 13 13 14 12 11 11 10 10 8 8 7 7 7 7 8 7 7 6 6 5 5 6 8 9 10 11 11 12 12 12 12 14 14 15 17 19 20 22 24 26 29 32 35
13 13 13 13 12 12 11 11 10 8 8 7 6 7 7 7 6 5 5 4 3 3 3 5 7 8 8 8 9 10 11 12 12 13 14 16 17 19 21 24 27 30 34 37
13 13 13 13 13 12 12 11 10 9 8 7 6 6 7 7 6 4 4 3 1 1 1 2 4 5 6 7 7 7 7 8 10 11 13 15 17 20 23 26 29 33 35 38
13 13 13 13 14 12 12 12 11 9 8 8 7 7 6 6 5 4 4 3 2 1 1 1 2 3 4 4 5 5 6 8 9 11 14 17 20 23 26 29 32 34 37 40
14 14 14 13 14 13 12 13 12 11 11 10 8 7 7 5 5 4 4 3 2 2 2 2 3 3 3 4 5 6 7 9 11 14 17 20 23 26 28 31 34 36 38 40
Wind_Direction
224 225 226 227 228 230 231 231 233 234 234 232 232 233 235 237 242 245 249 253 257 259 260 260 260 260 260 259 259 259 259 259 259 260 261 262 263 264 265 267 268 271 273 275
222 222 223 225 226 229 230 231 233 234 234 234 233 234 236 239 243 247 251 254 257 260 261 261 262 261 261 261 260 259 259 258 257 258 259 259 260 262 264 266 267 270 272 275
220 220 221 223 225 227 229 231 232 234 236 238 237 235 239 243 248 252 255 257 259 261 263 263 263 262 261 260 259 258 257 257 255 255 255 257 259 261 263 265 267 269 271 273
217 216 218 220 223 225 228 230 234 236 238 240 243 242 240 249 253 256 259 261 263 264 265 265 264 263 262 261 260 258 256 255 254 253 254 255 256 258 260 262 265 267 270 273
215 214 216 219 221 225 228 231 236 239 242 244 248 252 247 255 259 262 264 265 266 266 266 266 265 264 262 261 260 258 256 254 253 252 252 252 253 254 257 260 262 265 268 271
212 213 215 219 222 226 230 235 240 245 248 251 254 259 258 265 268 270 271 271 270 269 268 267 265 264 262 260 259 257 256 254 252 251 250 250 251 252 255 257 260 263 266 269
211 213 216 221 225 230 235 241 248 252 255 259 262 265 266 272 275 276 276 276 274 273 271 269 267 265 263 261 258 256 255 253 251 250 248 248 249 250 252 255 257 261 264 268
214 215 219 224 230 235 242 249 256 261 263 265 268 271 273 276 277 277 277 277 276 276 274 273 270 267 264 261 258 255 253 251 250 248 247 246 246 247 249 252 255 259 262 266
216 219 223 229 235 242 249 256 262 267 269 272 274 277 279 280 280 279 279 279 278 278 277 275 273 270 266 262 258 254 251 249 247 246 244 244 244 245 247 250 253 257 261 265
219 224 227 234 241 247 253 258 264 268 273 276 277 281 285 286 285 284 283 283 283 282 280 279 276 272 268 263 258 253 249 246 243 242 242 241 241 242 245 248 251 255 260 264
222 228 231 238 244 250 255 260 265 269 274 279 281 284 289 290 289 289 290 291 290 289 286 282 278 274 268 262 256 251 246 243 240 239 238 237 237 240 243 246 250 254 259 264
224 229 234 239 245 250 255 261 266 271 275 279 283 290 292 289 290 292 294 293 292 291 288 285 282 276 269 261 252 246 242 239 236 234 234 234 234 237 241 245 249 254 259 264
224 229 234 239 244 250 256 262 268 272 276 281 286 296 296 293 294 295 296 297 295 294 292 290 284 277 268 258 248 240 236 232 230 229 229 230 231 235 239 244 249 254 259 265
224 229 235 242 248 252 257 263 269 274 280 283 290 297 295 293 297 299 300 302 301 299 297 293 286 277 265 252 241 231 225 222 222 222 223 225 229 233 238 243 249 254 260 266
223 229 236 244 251 254 257 263 269 276 283 289 296 301 301 297 303 306 307 309 308 307 303 297 287 273 258 243 230 221 214 212 212 215 217 221 226 231 237 244 250 256 262 268
226 231 238 245 251 255 261 267 272 278 284 292 300 305 304 307 311 312 313 316 317 316 313 305 291 266 238 219 210 205 202 202 204 208 212 217 224 231 238 245 252 259 265 271
229 234 240 243 248 255 260 266 271 278 284 292 303 308 313 317 321 321 321 327 331 332 331 325 306 228 190 186 185 185 187 191 195 200 207 215 224 232 240 248 256 262 268 273
232 238 240 243 249 256 261 264 271 278 282 290 301 312 322 327 333 334 333 338 347 355 5 22 76 128 150 159 164 168 175 182 189 197 206 217 226 235 245 253 258 263 269 274
236 240 242 244 248 254 259 264 267 272 278 289 300 313 325 334 341 345 346 348 360 16 30 54 90 116 131 139 148 158 167 176 187 198 210 220 231 241 248 254 260 267 273 278
237 240 241 242 245 250 253 255 259 265 274 288 301 316 328 338 343 348 353 359 9 30 54 73 92 110 124 134 142 152 163 175 188 202 216 228 237 245 253 261 267 272 277 283
235 236 240 242 245 246 246 247 251 257 269 281 297 313 326 333 347 355 359 6 22 43 71 88 101 111 120 133 144 155 167 181 196 211 224 233 243 253 260 267 273 279 284 288
236 239 241 242 242 238 239 239 243 251 263 275 286 302 320 329 336 351 359 13 27 49 83 104 115 121 131 142 153 167 182 197 209 222 234 245 253 261 268 275 281 286 290 293
238 240 239 237 235 233 233 233 237 245 256 271 283 287 306 321 329 334 347 2 30 53 77 119 130 139 150 164 174 187 201 212 226 239 249 257 265 273 279 284 289 293 295 298
237 237 233 230 231 231 229 231 234 244 255 268 276 281 292 306 310 312 318 337 0 73 86 127 147 156 172 183 193 207 220 234 245 255 263 270 277 283 288 292 295 297 299 301
236 231 228 230 231 230 231 233 234 240 250 261 272 278 289 297 302 302 297 291 280 206 159 152 157 169 184 196 211 226 242 255 264 272 279 284 288 291 294 296 299 300 302 304
233 230 230 233 232 231 233 236 236 241 247 256 266 271 276 278 283 289 285 273 258 220 211 209 203 210 222 230 244 257 269 276 283 288 291 293 295 297 299 300 302 304 305 307
Height
5653 5660 5666 5671 5676 5681 5686 5691 5696 5700 5704 5709 5713 5717 5721 5724 5726 5729 5731 5733 5734 5737 5739 5741 5743 5745 5746 5748 5749 5750 5752 5755 5756 5757 5759 5761 5762 5764 5765 5766 5767 5768 5769 5769
5649 5655 5660 5664 5670 5675 5680 5685 5690 5694 5697 5702 5707 5711 5715 5717 5720 5721 5723 5725 5727 5729 5731 5733 5735 5736 5737 5739 5740 5741 5743 5745 5747 5749 5751 5752 5753 5755 5757 5759 5760 5761 5762 5762
5644 5651 5655 5660 5665 5670 5675 5680 5684 5688 5692 5696 5700 5705 5709 5711 5712 5714 5716 5717 5718 5720 5722 5723 5724 5726 5727 5728 5730 5732 5734 5735 5737 5739 5741 5742 5745 5748 5749 5751 5753 5754 5754 5754
5639 5645 5650 5655 5660 5665 5670 5675 5679 5683 5687 5690 5694 5697 5704 5704 5704 5706 5707 5708 5709 5710 5711 5712 5713 5715 5716 5717 5719 5721 5723 5724 5726 5729 5731 5734 5737 5739 5741 5743 5744 5746 5747 5747
5636 5642 5646 5651 5656 5661 5665 5670 5674 5677 5681 5685 5688 5689 5697 5696 5696 5696 5697 5698 5698 5699 5699 5700 5701 5702 5703 5705 5706 5708 5710 5713 5715 5718 5722 5725 5727 5730 5732 5734 5736 5738 5739 5739
5632 5638 5643 5648 5652 5657 5661 5666 5669 5671 5675 5680 5682 5683 5688 5686 5686 5685 5685 5685 5686 5686 5687 5687 5687 5688 5689 5690 5692 5694 5697 5700 5703 5707 5711 5714 5718 5721 5723 5726 5728 5729 5731 5731
5629 5634 5639 5644 5649 5653 5657 5661 5664 5666 5669 5673 5673 5675 5681 5677 5674 5673 5673 5672 5672 5672 5672 5672 5672 5673 5674 5675 5677 5680 5683 5687 5690 5695 5700 5704 5708 5712 5714 5717 5719 5721 5722 5723
5626 5632 5636 5641 5645 5649 5652 5656 5659 5661 5663 5665 5665 5667 5671 5667 5663 5661 5660 5659 5658 5658 5657 5657 5657 5657 5659 5660 5662 5665 5668 5672 5677 5682 5687 5692 5697 5702 5705 5708 5710 5713 5714 5715
5622 5628 5633 5637 5640 5645 5647 5650 5653 5655 5655 5656 5657 5658 5659 5656 5653 5650 5649 5647 5645 5644 5642 5641 5641 5641 5642 5644 5646 5649 5653 5657 5663 5668 5674 5681 5687 5691 5695 5698 5701 5704 5705 5706
5619 5624 5629 5632 5636 5639 5642 5645 5647 5648 5647 5648 5649 5650 5649 5645 5642 5640 5637 5634 5632 5630 5628 5626 5624 5624 5624 5626 5629 5633 5637 5642 5648 5655 5662 5670 5676 5681 5685 5689 5692 5695 5697 5698
5615 5620 5625 5628 5631 5634 5637 5640 5640 5641 5641 5641 5640 5645 5641 5636 5632 5629 5626 5622 5619 5616 5613 5610 5607 5606 5606 5608 5612 5616 5622 5627 5635 5643 5651 5659 5665 5671 5676 5680 5684 5686 5688 5690
5611 5616 5620 5624 5626 5629 5631 5633 5634 5635 5635 5633 5632 5637 5633 5628 5623 5620 5617 5612 5608 5603 5598 5594 5590 5587 5587 5589 5593 5599 5606 5614 5623 5632 5640 5648 5655 5661 5667 5672 5676 5678 5680 5682
5608 5613 5616 5619 5623 5625 5626 5628 5628 5628 5628 5627 5625 5630 5624 5619 5615 5612 5608 5603 5597 5592 5585 5579 5574 5570 5569 5572 5577 5584 5593 5603 5613 5622 5631 5639 5646 5653 5659 5664 5668 5671 5673 5673
5606 5610 5613 5616 5617 5620 5622 5623 5622 5622 5622 5621 5620 5620 5618 5612 5608 5605 5600 5595 5588 5581 5574 5567 5561 5556 5555 5558 5564 5572 5582 5594 5604 5614 5623 5632 5639 5646 5652 5657 5661 5663 5665 5665
5603 5606 5608 5611 5612 5615 5616 5617 5617 5616 5616 5615 5615 5612 5610 5605 5602 5598 5593 5587 5580 5573 5565 5557 5551 5548 5548 5551 5557 5565 5576 5587 5598 5608 5617 5626 5634 5640 5646 5651 5654 5656 5657 5657
5599 5603 5605 5607 5608 5610 5611 5612 5612 5612 5611 5609 5608 5607 5604 5600 5597 5592 5587 5581 5574 5566 5559 5552 5547 5544 5545 5549 5555 5563 5573 5584 5595 5605 5614 5623 5630 5636 5641 5645 5647 5649 5650 5650
5596 5599 5602 5603 5604 5606 5608 5609 5608 5608 5607 5605 5604 5603 5600 5597 5593 5588 5583 5578 5571 5564 5557 5551 5547 5545 5547 5551 5557 5564 5574 5584 5594 5604 5612 5620 5626 5632 5636 5639 5641 5642 5643 5642
5593 5595 5597 5599 5601 5603 5606 5605 5604 5604 5603 5602 5601 5599 5597 5594 5590 5586 5581 5577 5571 5565 5559 5554 5551 5551 5553 5557 5562 5569 5577 5586 5595 5604 5611 5618 5623 5628 5631 5633 5635 5636 5635 5634
5590 5592 5594 5596 5597 5599 5601 5600 5600 5600 5600 5599 5598 5596 5594 5591 5589 5585 5581 5577 5573 5568 5564 5560 5558 5558 5560 5564 5569 5575 5583 5590 5598 5605 5611 5616 5621 5624 5626 5628 5629 5628 5627 5625
5587 5589 5591 5592 5594 5596 5598 5598 5597 5599 5598 5597 5596 5594 5593 5591 5589 5586 5582 5579 5575 5572 5569 5567 5566 5566 5568 5571 5576 5581 5587 5594 5600 5605 5610 5614 5617 5620 5621 5622 5622 5621 5619 5617
5584 5586 5588 5589 5590 5593 5595 5595 5595 5597 5598 5596 5594 5593 5592 5590 5589 5587 5583 5581 5578 5576 5574 5574 5573 5574 5575 5578 5582 5586 5591 5596 5601 5605 5609 5612 5614 5615 5616 5616 5615 5613 5611 5608
5581 5583 5585 5586 5588 5592 5591 5592 5593 5594 5594 5593 5593 5592 5591 5590 5588 5587 5585 5583 5581 5580 5579 5579 5579 5580 5582 5584 5587 5590 5594 5598 5601 5604 5606 5608 5609 5610 5610 5609 5608 5605 5603 5599
5579 5581 5582 5584 5587 5588 5588 5589 5590 5591 5592 5591 5591 5591 5590 5589 5588 5587 5586 5585 5584 5583 5583 5583 5584 5585 5586 5588 5590 5593 5596 5598 5601 5602 5604 5604 5605 5605 5604 5602 5600 5597 5594 5590
5576 5577 5579 5581 5583 5584 5585 5587 5588 5589 5590 5590 5590 5589 5589 5588 5588 5587 5587 5586 5585 5585 5585 5585 5586 5587 5589 5590 5592 5594 5596 5597 5599 5600 5600 5600 5600 5599 5597 5595 5592 5589 5585 5580
5573 5574 5576 5577 5579 5581 5583 5584 5586 5587 5587 5588 5588 5588 5588 5587 5587 5587 5586 5586 5586 5586 5586 5587 5588 5589 5590 5591 5592 5593 5594 5595 5596 5596 5596 5595 5594 5592 5590 5587 5584 5580 5576 5571
5570 5571 5573 5575 5576 5578 5580 5581 5583 5584 5585 5586 5586 5586 5586 5586 5586 5586 5586 5586 5586 5586 5587 5587 5588 5589 5590 5590 5591 5592 5592 5592 5592 5592 5591 5590 5588 5585 5583 5579 5575 5571 5566 5561